sat.trackr.live / text

‹ back to catalog

STARLINK-3546

NORAD 51718 · 2022-016E

PAYLOAD ACTIVE UNKNOWN

§ Identity

Operator
Country
US
Launch date
2022-02-21
Launch site
AFETR
Launch vehicle
Mass (kg)
RCS (m²)

Purposes: comms

External: N2YO · Heavens-Above · Gunter

§ Orbital elements

Epoch: 2026-09-19T22:43:57.571104Z

Period
94.49 min
Inclination
53.1809°
Eccentricity
0.0004845
Mean motion
15.23935877 rev/d
Perigee alt
490.7 km
Apogee alt
497.3 km
Semi-major
6,872.1 km
B*
7.5208e-4
RAAN
159.5399°
Arg perigee
127.3829°
Mean anomaly
232.7611°
Rev number
25,412

§ Raw data

STARLINK-35461 51718U 22016E   26262.94719411  .00018130  00000+0  75208-3 0  99942 51718  53.1809 159.5399 0004845 127.3829 232.7611 15.23935877254120

JSON: /api/v1/satellites/51718 · /tle

For live sub-satellite position, see the globe view (requires WebGL).

§ Visibility from observer

Set your observer location to see the next 7 days of passes ≥ 10°. The values pass through the URL so the page stays shareable.

No JS? Fill the form by hand. The geolocation button needs JavaScript.